EW0132 Weather Reports


time (UTC)temp
C
wind
direction
speed
KPH
gust
KPH
rain 1hr
cm
rain 24hr
cm
rain mn
cm
humidity
%
barometer
mb
20260504044546 3 0 0.0 0.0 0.00 0.00 0.00 73 1015.4
20260504043056 3 0 0.0 4.8 0.00 0.00 0.00 75 1015.3
20260504041549 3 261 3.2 6.4 0.00 0.00 0.00 74 1015.4
20260504040049 3 265 1.6 4.8 0.00 0.00 0.00 74 1015.4
20260504034556 3 0 0.0 4.8 0.00 0.00 0.00 72 1015.5
20260504033050 3 0 0.0 4.8 0.00 0.00 0.00 72 1015.4
20260504031549 4 256 0.0 4.8 0.00 0.00 0.00 71 1015.5
20260504030052 5 0 0.0 0.0 0.00 0.00 0.00 69 1015.5
20260504024548 5 0 0.0 0.0 0.00 0.00 0.00 66 1015.5
20260504023048 5 0 0.0 0.0 0.00 0.00 0.00 66 1015.7
20260504021553 5 0 0.0 0.0 0.00 0.00 0.00 65 1015.6
20260504020105 6 284 1.6 6.4 0.00 0.00 0.00 63 1015.5
20260504014553 6 284 1.6 4.8 0.00 0.00 0.00 62 1015.4
20260504013108 6 276 3.2 9.7 0.00 0.00 0.00 60 1015.4
20260504011548 7 236 3.2 6.4 0.00 0.00 0.00 59 1015.3
20260504010048 7 261 1.6 6.4 0.00 0.00 0.00 56 1015.3
20260504004546 8 254 3.2 6.4 0.00 0.00 0.00 52 1015.3
20260504003048 8 247 3.2 8.0 0.00 0.00 0.00 51 1015.2
20260504001551 9 250 4.8 11.3 0.00 0.00 0.00 50 1015.2
20260504000041 9 248 4.8 16.1 0.00 0.00 0.00 49 1015.2
20260503234543 10 254 4.8 16.1 0.00 0.00 0.00 49 1015.2
20260503233045 10 267 8.0 25.7 0.00 0.00 0.00 47 1015.2
20260503231543 10 237 12.9 29.0 0.00 0.00 0.00 46 1015.1
20260503230049 11 290 9.7 25.7 0.00 0.00 0.00 46 1015.3
20260503224558 10 308 12.9 27.4 0.00 0.00 0.00 45 1015.2
20260503223051 11 251 17.7 33.8 0.00 0.00 0.00 44 1015.3
20260503221558 11 255 14.5 29.0 0.00 0.00 0.00 45 1015.3
20260503220050 11 259 12.9 24.1 0.00 0.00 0.00 44 1015.2
20260503214553 11 275 12.9 30.6 0.00 0.00 0.00 46 1015.2
20260503213050 12 315 19.3 30.6 0.00 0.00 0.00 43 1015.2
20260503211550 11 293 14.5 30.6 0.00 0.00 0.00 45 1015.3
20260503210054 10 270 17.7 33.8 0.00 0.00 0.00 48 1015.3
20260503204614 11 254 16.1 30.6 0.00 0.00 0.00 43 1015.4
20260503203057 10 225 14.5 33.8 0.00 0.00 0.00 48 1015.5
20260503201553 10 284 12.9 30.6 0.00 0.00 0.00 46 1015.8
20260503200053 11 307 19.3 29.0 0.00 0.00 0.00 47 1015.8
20260503194548 11 314 17.7 37.0 0.00 0.00 0.00 48 1016.0
20260503193049 11 279 12.9 33.8 0.00 0.00 0.00 46 1016.1
20260503191607 10 282 11.3 30.6 0.00 0.00 0.00 47 1016.1
20260503190049 11 237 19.3 37.0 0.00 0.00 0.00 49 1016.3
20260503184544 10 321 19.3 51.5 0.00 0.00 0.00 47 1016.4
20260503183049 10 263 17.7 32.2 0.00 0.00 0.00 46 1016.5
20260503181551 10 263 19.3 38.6 0.00 0.00 0.00 47 1016.6
20260503180057 10 317 17.7 33.8 0.00 0.00 0.00 48 1016.7
20260503174553 9 287 16.1 32.2 0.00 0.00 0.00 51 1016.9
20260503173045 9 251 17.7 37.0 0.00 0.00 0.00 52 1016.9
20260503171545 8 275 17.7 37.0 0.00 0.00 0.00 48 1017.2
20260503170103 8 221 12.9 32.2 0.00 0.00 0.00 51 1017.4
20260503081543 0 240 0.0 8.0 0.00 0.00 0.00 83 1015.8
20260503071608 0 289 4.8 16.1 0.00 0.00 0.00 80 1015.5
20260503054606 1 0 0.0 6.4 0.00 0.00 0.00 78 1015.5